Location: Huntsville
(41.2590°N, 111.7678°W)
Time: 01:48:20
(UTC+00:00)

Courier 1B Rocket - Pass Details

Date: 23 June 2021
Orbit: 920 x 1202 km, 28.2° (Epoch: 29 July)

Event Time Altitude Azimuth Distance (km) Brightness Sun altitude
Rises 04:12:27 0° 254° (WSW) 3,778 8.5 -10.9°
Reaches altitude 10° 04:15:49 10° 240° (WSW) 2,773 7.6 -11.3°
Maximum altitude 04:20:48 22° 192° (SSW) 1,959 6.3 -12.0°
Enters shadow 04:24:08 15° 154° (SSE) 2,315 6.4 -12.4°
Drops below altitude 10° 04:25:34 10° 143° (SE) 2,649 - -12.6°
Sets 04:28:42 0° 129° (SE) 3,567 - -13.0°
